Location: Alulod
(14.2076°N, 120.8898°E)
Time: 02:46:47
(UTC+00:00)

NOSS 2-1 (D) - Pass Details

Date: 13 December 2025
Orbit: 374 x 1677 km, 63.3° (Epoch: 15 January)

Event Time Altitude Azimuth Distance (km) Brightness Sun altitude
Exits shadow 21:04:45 12° 341° (NNW) 2,026 5.8 -16.0°
Maximum altitude 21:09:22 77° 67° (ENE) 906 4.4 -14.9°
Drops below altitude 10° 21:16:29 10° 152° (SSE) 3,054 7.8 -13.3°
Sets 21:19:42 0° 154° (SSE) 4,230 8.6 -12.6°
